TimeCDT,TemperatureF,Dew PointF,Humidity,Sea Level PressureIn,VisibilityMPH,Wind Direction,Wind SpeedMPH,Gust SpeedMPH,PrecipitationIn,Events,Conditions,WindDirDegrees,DateUTC
12:15 AM,55.4,46.4,72,29.85,10.0,SE,9.2,-,N/A,,Clear,140,2013-09-23 05:15:00
12:35 AM,55.4,46.4,72,29.86,10.0,SE,8.1,-,N/A,,Clear,140,2013-09-23 05:35:00
12:55 AM,55.4,46.4,72,29.85,10.0,SE,8.1,-,N/A,,Clear,140,2013-09-23 05:55:00
1:15 AM,55.4,46.4,72,29.85,10.0,SE,9.2,-,N/A,,Clear,140,2013-09-23 06:15:00
1:35 AM,55.4,46.4,72,29.85,10.0,SSE,9.2,-,N/A,,Clear,150,2013-09-23 06:35:00
1:55 AM,55.4,46.4,72,29.84,10.0,SSE,8.1,-,N/A,,Clear,150,2013-09-23 06:55:00
2:15 AM,55.4,46.4,72,29.84,10.0,SSE,8.1,-,N/A,,Clear,150,2013-09-23 07:15:00
2:35 AM,55.4,46.4,72,29.84,10.0,SSE,8.1,-,N/A,,Clear,150,2013-09-23 07:35:00
2:55 AM,55.4,46.4,72,29.84,10.0,SSE,9.2,-,N/A,,Clear,160,2013-09-23 07:55:00
3:15 AM,55.4,46.4,72,29.84,10.0,SSE,10.4,-,N/A,,Clear,150,2013-09-23 08:15:00
3:35 AM,55.4,46.4,72,29.83,10.0,SSE,12.7,-,N/A,,Clear,160,2013-09-23 08:35:00
3:55 AM,55.4,46.4,72,29.83,10.0,SSE,10.4,-,N/A,,Clear,150,2013-09-23 08:55:00
4:15 AM,55.4,46.4,72,29.83,10.0,SSE,10.4,-,N/A,,Clear,160,2013-09-23 09:15:00
4:35 AM,55.4,46.4,72,29.82,10.0,SSE,10.4,-,N/A,,Clear,160,2013-09-23 09:35:00
4:55 AM,55.4,46.4,72,29.82,10.0,SSE,9.2,-,N/A,,Clear,150,2013-09-23 09:55:00
5:15 AM,55.4,46.4,72,29.82,10.0,SSE,10.4,-,N/A,,Clear,150,2013-09-23 10:15:00
5:35 AM,55.4,46.4,72,29.82,10.0,SSE,9.2,-,N/A,,Clear,150,2013-09-23 10:35:00
5:55 AM,53.6,46.4,77,29.82,10.0,SSE,10.4,-,N/A,,Clear,150,2013-09-23 10:55:00
6:15 AM,53.6,46.4,77,29.84,10.0,SSE,8.1,-,N/A,,Clear,160,2013-09-23 11:15:00
6:35 AM,53.6,46.4,77,29.86,10.0,South,9.2,-,N/A,,Clear,180,2013-09-23 11:35:00
6:55 AM,55.4,46.4,72,29.86,10.0,SSE,9.2,-,N/A,,Clear,160,2013-09-23 11:55:00
7:15 AM,55.4,46.4,72,29.86,10.0,SSE,10.4,-,N/A,,Clear,160,2013-09-23 12:15:00
7:35 AM,53.6,46.4,77,29.85,10.0,SSE,10.4,-,N/A,,Clear,150,2013-09-23 12:35:00
7:55 AM,55.4,46.4,72,29.85,10.0,SSE,11.5,-,N/A,,Clear,160,2013-09-23 12:55:00
8:15 AM,57.2,48.2,72,29.85,10.0,SSE,15.0,-,N/A,,Clear,160,2013-09-23 13:15:00
8:35 AM,59.0,48.2,67,29.85,10.0,South,15.0,18.4,N/A,,Clear,170,2013-09-23 13:35:00
8:55 AM,60.8,48.2,63,29.85,10.0,South,16.1,20.7,N/A,,Clear,170,2013-09-23 13:55:00
9:15 AM,62.6,48.2,59,29.86,10.0,South,18.4,26.5,N/A,,Clear,180,2013-09-23 14:15:00
9:35 AM,64.4,48.2,56,29.86,10.0,South,19.6,25.3,N/A,,Clear,170,2013-09-23 14:35:00
9:55 AM,66.2,50.0,56,29.85,10.0,South,19.6,27.6,N/A,,Clear,170,2013-09-23 14:55:00
10:15 AM,66.2,50.0,56,29.84,10.0,South,20.7,28.8,N/A,,Clear,170,2013-09-23 15:15:00
10:35 AM,68.0,50.0,52,29.84,10.0,South,21.9,27.6,N/A,,Clear,170,2013-09-23 15:35:00
10:55 AM,69.8,50.0,49,29.83,10.0,South,24.2,31.1,N/A,,Clear,170,2013-09-23 15:55:00
11:15 AM,69.8,50.0,49,29.82,10.0,South,21.9,29.9,N/A,,Clear,170,2013-09-23 16:15:00
11:35 AM,71.6,50.0,46,29.82,10.0,SSE,20.7,29.9,N/A,,Clear,160,2013-09-23 16:35:00
11:55 AM,73.4,51.8,47,29.81,10.0,SSE,18.4,32.2,N/A,,Clear,160,2013-09-23 16:55:00
12:15 PM,73.4,50.0,44,29.81,10.0,South,23.0,28.8,N/A,,Clear,180,2013-09-23 17:15:00
12:35 PM,73.4,51.8,47,29.80,10.0,SSE,19.6,28.8,N/A,,Clear,150,2013-09-23 17:35:00
12:55 PM,75.2,50.0,41,29.80,10.0,SSE,19.6,31.1,N/A,,Clear,160,2013-09-23 17:55:00
1:15 PM,75.2,50.0,41,29.78,10.0,SSE,18.4,27.6,N/A,,Clear,160,2013-09-23 18:15:00
1:35 PM,75.2,50.0,41,29.79,10.0,SSE,18.4,27.6,N/A,,Clear,160,2013-09-23 18:35:00
1:55 PM,77.0,48.2,36,29.77,10.0,South,17.3,28.8,N/A,,Clear,170,2013-09-23 18:55:00
2:15 PM,78.8,50.0,36,29.76,10.0,SSE,23.0,29.9,N/A,,Clear,160,2013-09-23 19:15:00
2:35 PM,78.8,48.2,34,29.76,10.0,South,21.9,29.9,N/A,,Clear,170,2013-09-23 19:35:00
2:55 PM,78.8,48.2,34,29.76,10.0,South,19.6,27.6,N/A,,Clear,180,2013-09-23 19:55:00
3:15 PM,78.8,50.0,36,29.75,10.0,SSE,19.6,29.9,N/A,,Clear,160,2013-09-23 20:15:00
3:35 PM,78.8,50.0,36,29.75,10.0,South,25.3,32.2,N/A,,Clear,180,2013-09-23 20:35:00
3:55 PM,78.8,50.0,36,29.75,10.0,SSE,20.7,28.8,N/A,,Clear,160,2013-09-23 20:55:00
4:15 PM,75.2,48.2,38,29.74,10.0,SSE,24.2,31.1,N/A,,Partly Cloudy,160,2013-09-23 21:15:00
4:35 PM,75.2,48.2,38,29.75,10.0,SSE,18.4,27.6,N/A,,Partly Cloudy,160,2013-09-23 21:35:00
4:55 PM,78.8,48.2,34,29.74,10.0,South,21.9,32.2,N/A,,Clear,170,2013-09-23 21:55:00
5:15 PM,78.8,48.2,34,29.74,10.0,South,23.0,28.8,N/A,,Clear,170,2013-09-23 22:15:00
5:35 PM,77.0,48.2,36,29.74,10.0,South,18.4,31.1,N/A,,Clear,170,2013-09-23 22:35:00
5:55 PM,77.0,48.2,36,29.75,10.0,South,19.6,29.9,N/A,,Clear,170,2013-09-23 22:55:00
6:15 PM,75.2,48.2,38,29.74,10.0,South,15.0,26.5,N/A,,Clear,170,2013-09-23 23:15:00
6:35 PM,75.2,48.2,38,29.74,10.0,SSE,16.1,23.0,N/A,,Clear,160,2013-09-23 23:35:00
6:55 PM,73.4,48.2,41,29.74,10.0,SSE,17.3,24.2,N/A,,Clear,160,2013-09-23 23:55:00
7:15 PM,71.6,48.2,43,29.74,10.0,SSE,19.6,23.0,N/A,,Clear,160,2013-09-24 00:15:00
7:35 PM,71.6,48.2,43,29.74,10.0,South,15.0,25.3,N/A,,Clear,170,2013-09-24 00:35:00
7:55 PM,71.6,48.2,43,29.75,10.0,South,12.7,-,N/A,,Clear,170,2013-09-24 00:55:00
8:15 PM,71.6,48.2,43,29.75,10.0,South,16.1,20.7,N/A,,Scattered Clouds,170,2013-09-24 01:15:00
8:35 PM,69.8,48.2,46,29.75,10.0,South,19.6,25.3,N/A,,Partly Cloudy,170,2013-09-24 01:35:00
8:55 PM,71.6,48.2,43,29.76,10.0,South,17.3,24.2,N/A,,Clear,170,2013-09-24 01:55:00
9:15 PM,71.6,48.2,43,29.77,10.0,South,19.6,26.5,N/A,,Clear,180,2013-09-24 02:15:00
9:35 PM,71.6,50.0,46,29.78,10.0,South,19.6,29.9,N/A,,Clear,180,2013-09-24 02:35:00
9:55 PM,71.6,50.0,46,29.78,10.0,South,17.3,25.3,N/A,,Clear,190,2013-09-24 02:55:00
10:15 PM,71.6,50.0,46,29.79,10.0,SSW,16.1,-,N/A,,Clear,200,2013-09-24 03:15:00
10:35 PM,69.8,51.8,53,29.80,10.0,South,13.8,-,N/A,,Clear,190,2013-09-24 03:35:00
10:55 PM,69.8,50.0,49,29.80,10.0,South,10.4,-,N/A,,Clear,190,2013-09-24 03:55:00
11:15 PM,69.8,50.0,49,29.80,10.0,South,10.4,-,N/A,,Clear,190,2013-09-24 04:15:00
11:35 PM,69.8,50.0,49,29.80,8.0,SSW,9.2,-,N/A,,Clear,200,2013-09-24 04:35:00
11:55 PM,69.8,46.4,43,29.80,5.0,SSW,12.7,-,N/A,,Clear,210,2013-09-24 04:55:00